#timestamp,LO_Frequency,Hit,StdDev 
1522015215.9,286047007.1,Y
1522015235.7,286047008.2,P
1522015255.6,286047011.1,N
1522015275.4,286047013.6,P
1522015295.2,286047021.3,Y
1522015315.1,286047011.5,P
1522015346.0,286047006.3,E
1522015355.0,286047003.1,N
1522015355.9,286047003.1,P
1522015375.8,286046999.5,P
1522015395.6,286046999.2,N
1522015415.4,286046993.5,Y
1522015435.3,286047008.0,P
1522015455.1,286047003.4,N
1522015475.9,286047008.2,N
1522015495.7,286047008.5,N
1522015515.5,286047004.2,N
1522015535.4,286046998.4,N
1522015555.2,286046995.4,N
1522015575.0,286046992.0,N
1522015576.0,286046992.0,N
1522015595.8,286046989.7,N
1522015615.6,286046986.1,N
1522015635.5,286046983.8,N
1522015655.3,286046982.7,N
1522015675.1,286046979.5,N
1522015695.9,286046977.5,N
1522015715.7,286046978.4,N
1522015735.6,286046975.9,N
1522015755.4,286046974.7,N
1522015775.2,286046976.9,N
1522015795.1,286046974.7,N
1522015796.0,286046974.7,N
1522015815.8,286046972.6,N
1522015835.6,286046975.0,N
1522015855.5,286046975.0,N
1522015875.3,286046977.1,N
1522015895.2,286046974.6,N
1522015915.9,286046973.0,N
1522015935.7,286046973.9,N
1522015955.6,286046974.0,N
1522015975.4,286046971.1,N
1522015995.2,286046973.0,N
1522016015.1,286046972.8,N
1522016016.0,286046972.8,N
1522016035.8,286046973.1,N
1522016055.7,286046975.5,N
1522016075.5,286046975.6,Y
1522016095.3,286046993.4,P
1522016115.2,286046993.4,N
1522016135.0,286046994.5,N
1522016135.9,286046994.5,N
1522016155.8,286046994.0,N
1522016175.6,286046996.1,N
1522016195.4,286046995.2,N
1522016215.3,286046994.6,N
1522016235.1,286046993.5,N
1522016255.8,286046993.8,N
1522016275.7,286046996.4,N
1522016295.5,286046995.2,N
1522016315.4,286046996.9,N
1522016335.2,286046996.9,N
1522016355.0,286046998.9,N
1522016355.9,286046998.9,N
1522016375.8,286046999.1,N
1522016395.6,286046999.1,N
1522016415.5,286046997.4,N
1522016435.3,286046998.0,N
1522016455.1,286046997.9,N
1522016475.9,286046997.0,N
1522016495.7,286046999.4,N
1522016515.6,286046999.3,N
1522016535.4,286046998.7,N
1522016555.2,286046998.6,N
1522016575.1,286046998.9,N
1522016576.0,286046998.9,N
1522016595.8,286046998.9,N
1522016615.6,286046998.6,N
1522016635.5,286046999.5,N
1522016655.3,286046998.3,N
1522016675.2,286046999.3,N
1522016695.9,286046999.2,N
1522016715.7,286047000.9,N
1522016735.6,286047001.2,N
1522016755.4,286046999.5,N
1522016775.2,286046996.5,N
1522016795.1,286046999.4,N
1522016796.0,286046999.4,N
1522016815.8,286046998.9,N
1522016835.7,286046998.6,N
1522016855.5,286046998.2,N
1522016875.4,286046998.4,N
1522016895.2,286046999.5,N
1522016915.0,286046999.4,N
1522016915.9,286046999.4,N
1522016935.8,286047001.1,N
1522016955.6,286046998.1,N
1522016975.4,286047000.7,N
1522016995.3,286047002.8,N
1522017015.1,286047002.5,N
1522017035.9,286047000.2,N
1522017055.7,286046999.7,N
1522017075.5,286047001.4,N
1522017095.4,286047001.3,N
1522017115.2,286047004.2,Y
1522017135.1,286047003.3,P
1522017136.0,286047003.3,N
1522017155.8,286047003.3,N
1522017175.6,286047002.6,N
1522017195.5,286047002.2,N
1522017215.3,286047000.2,N
1522017235.1,286047002.4,N
1522017255.9,286047004.4,Y
1522017275.7,286046998.2,P
1522017295.6,286046998.4,N
1522017315.4,286046998.2,N
1522017335.2,286047002.7,N
1522017355.1,286047003.0,N
1522017356.0,286047003.0,N
1522017375.8,286047002.3,N
1522017395.7,286047001.2,N
1522017415.5,286047002.8,N
1522017435.3,286047002.3,N
1522017455.2,286047000.6,N
1522017475.0,286047000.6,N
1522017475.9,286047000.6,N
1522017495.7,286047000.5,N
1522017515.6,286047000.2,N
1522017535.4,286047001.0,N
1522017555.3,286046998.3,N
1522017575.1,286047001.0,N
1522017576.0,286047001.0,N
1522017595.8,286047000.6,N
1522017615.7,286047002.6,N
1522017635.5,286047002.6,N
1522017655.3,286047002.6,N
1522017675.2,286047001.5,N
1522017695.0,286047004.4,N
1522017695.9,286047004.4,N
1522017715.8,286047004.2,N
1522017735.6,286047001.9,N
1522017755.4,286046999.7,N
1522017775.3,286047002.2,N
1522017795.1,286047002.1,N
1522017815.8,286047000.5,N
1522017835.7,286047001.9,N
1522017855.5,286047000.1,N
1522017875.4,286047002.5,N
1522017895.2,286047002.1,N
1522017915.0,286047001.6,N
1522017915.9,286047001.6,N
1522017935.8,286047003.4,N
1522017955.6,286047005.9,Y
1522017975.5,286047004.3,P
1522017995.3,286047001.3,N
1522018015.1,286047004.0,N
1522018035.9,286047004.0,N
1522018055.7,286047001.5,N
1522018075.5,286047000.1,N
1522018095.4,286047001.0,N
1522018115.2,286047000.2,N
1522018135.1,286047002.1,N
1522018136.0,286047002.1,N
1522018155.8,286047002.5,N
1522018175.6,286047003.6,N
1522018195.5,286047001.3,N
1522018215.3,286047003.9,N
1522018235.2,286047001.4,N
1522018255.9,286047001.2,N
1522018275.7,286046999.9,N
1522018295.6,286046999.8,N
1522018315.4,286047001.5,N
1522018335.2,286046999.7,N
1522018355.1,286047000.6,N
1522018356.0,286047000.6,N
1522018375.8,286046998.5,N
1522018395.7,286046998.6,N
1522018415.5,286047000.5,N
1522018435.4,286047004.1,N
1522018455.2,286047002.2,N
1522018475.0,286047004.0,N
1522018475.9,286047004.0,N
1522018495.8,286047002.6,N
1522018515.6,286047004.2,N
1522018535.5,286047003.8,N
1522018555.3,286047004.3,N
1522018575.1,286047003.5,N
1522018595.9,286047004.9,N
1522018615.7,286047005.2,N
1522018635.5,286047003.7,N
1522018655.4,286047004.0,N
1522018675.2,286047004.7,N
1522018695.1,286047006.8,Y
1522018696.0,286047006.8,P
1522018715.8,286047005.2,N
1522018735.6,286047005.2,N
1522018755.5,286047004.8,N
1522018775.3,286047003.4,N
1522018795.1,286047001.7,N
